Location: Mladá Boleslav
(50.4134°N, 14.9084°E)
Time: 16:38:16
(UTC+02:00)

KKS-1 - Pass Details

Date: 02 June 2024
Orbit: 626 x 640 km, 98.1° (Epoch: 20 June)

Event Time Altitude Azimuth Distance (km) Brightness Sun altitude
Rises 23:25:10 0° 25° (NNE) 2,935 ? -14.4°
Reaches altitude 10° 23:27:50 10° 41° (NE) 2,019 ? -14.5°
Maximum altitude 23:31:14 22° 92° (E) 1,389 ? -14.7°
Enters shadow 23:32:49 18° 122° (ESE) 1,542 ? -14.8°
